QPF
0.00 0.02 0.04 0.06 0.06 0.10 0.01 0.00 0.01 0.03 0.00 0.00 0.00 0.06 0.01 0.03 0.05 0.03 0.02 0.01 0.00 0.00 0.00 0.00 0.00 0.00 0.00 0.00 0.00 0.00 0.00 0.00 0.00 0.05 0.02 0.00 0.00 0.01 0.06 0.07 0.04 0.01 0.01 0.00 0.00 0.00 0.01 0.00 0.00
0.01 0.03 0.12 0.16 0.05 0.04 0.03 0.00 0.00 0.00 0.00 0.01 0.01 0.10 0.04 0.00 0.00 0.00 0.00 0.00 0.00 0.00 0.00 0.00 0.00 0.00 0.00 0.00 0.00 0.00 0.00 0.00 0.00 0.00 0.00 0.00 0.00 0.00 0.02 0.02 0.04 0.03 0.02 0.00 0.00 0.00 0.00 0.00 0.00
0.03 0.05 0.30 0.19 0.02 0.01 0.03 0.01 0.00 0.00 0.00 0.00 0.01 0.02 0.02 0.01 0.01 0.00 0.00 0.00 0.00 0.00 0.00 0.00 0.00 0.00 0.00 0.00 0.00 0.00 0.00 0.00 0.00 0.00 0.00 0.00 0.00 0.01 0.00 0.00 0.02 0.04 0.01 0.03 0.04 0.05 0.06 0.01 0.00
0.05 0.06 0.10 0.10 0.00 0.00 0.00 0.00 0.00 0.00 0.00 0.00 0.00 0.02 0.00 0.01 0.02 0.00 0.00 0.00 0.00 0.00 0.00 0.00 0.00 0.00 0.00 0.00 0.00 0.00 0.00 0.00 0.00 0.00 0.02 0.09 0.01 0.00 0.00 0.01 0.03 0.01 0.02 0.07 0.10 0.09 0.08 0.03 0.00
0.17 0.09 0.02 0.02 0.00 0.01 0.00 0.00 0.00 0.00 0.00 0.00 0.01 0.02 0.00 0.00 0.01 0.00 0.00 0.00 0.00 0.00 0.00 0.00 0.00 0.00 0.00 0.00 0.00 0.00 0.00 0.00 0.01 0.00 0.00 0.01 0.00 0.00 0.00 0.00 0.00 0.00 0.01 0.04 0.05 0.03 0.04 0.03 0.00
0.05 0.11 0.05 0.01 0.01 0.01 0.00 0.00 0.01 0.02 0.00 0.00 0.00 0.00 0.00 0.00 0.00 0.00 0.00 0.00 0.00 0.00 0.00 0.00 0.00 0.00 0.00 0.00 0.00 0.00 0.00 0.00 0.00 0.00 0.00 0.00 0.00 0.00 0.00 0.00 0.00 0.00 0.00 0.00 0.01 0.02 0.00 0.00 0.00
0.02 0.01 0.04 0.01 0.00 0.00 0.00 0.00 0.04 0.01 0.00 0.00 0.00 0.00 0.00 0.00 0.00 0.00 0.00 0.00 0.01 0.00 0.00 0.00 0.00 0.00 0.00 0.01 0.00 0.00 0.00 0.00 0.00 0.00 0.00 0.00 0.00 0.00 0.00 0.00 0.00 0.00 0.00 0.00 0.00 0.00 0.00 0.00 0.00
0.02 0.04 0.03 0.03 0.02 0.00 0.00 0.00 0.00 0.00 0.00 0.00 0.00 0.00 0.00 0.00 0.00 0.00 0.00 0.00 0.00 0.00 0.00 0.00 0.00 0.00 0.00 0.00 0.00 0.01 0.00 0.00 0.00 0.00 0.00 0.00 0.00 0.00 0.00 0.00 0.00 0.00 0.00 0.00 0.00 0.00 0.00 0.00 0.00
0.01 0.03 0.02 0.02 0.04 0.01 0.00 0.01 0.00 0.00 0.00 0.00 0.00 0.00 0.00 0.00 0.00 0.00 0.00 0.00 0.00 0.00 0.00 0.00 0.00 0.00 0.00 0.00 0.00 0.00 0.00 0.00 0.00 0.00 0.00 0.00 0.00 0.04 0.01 0.01 0.01 0.00 0.00 0.00 0.00 0.00 0.00 0.00 0.00
0.00 0.00 0.00 0.00 0.01 0.00 0.00 0.00 0.00 0.00 0.00 0.00 0.00 0.00 0.00 0.00 0.00 0.00 0.00 0.00 0.00 0.00 0.00 0.00 0.00 0.00 0.00 0.00 0.00 0.00 0.00 0.00 0.00 0.00 0.04 0.04 0.01 0.04 0.01 0.01 0.00 0.00 0.00 0.00 0.00 0.00 0.00 0.00 0.00
0.00 0.00 0.00 0.00 0.00 0.00 0.00 0.01 0.00 0.02 0.00 0.02 0.00 0.00 0.00 0.00 0.00 0.00 0.00 0.00 0.00 0.00 0.00 0.00 0.00 0.00 0.00 0.00 0.00 0.00 0.03 0.04 0.00 0.00 0.01 0.00 0.00 0.00 0.00 0.00 0.01 0.00 0.00 0.00 0.00 0.00 0.00 0.04 0.03
0.00 0.00 0.00 0.00 0.00 0.00 0.00 0.00 0.00 0.01 0.00 0.00 0.00 0.00 0.00 0.00 0.00 0.00 0.00 0.00 0.00 0.00 0.00 0.00 0.00 0.00 0.00 0.00 0.00 0.02 0.04 0.09 0.09 0.00 0.00 0.00 0.00 0.00 0.00 0.00 0.00 0.00 0.00 0.00 0.00 0.00 0.01 0.11 0.03
0.00 0.00 0.00 0.00 0.00 0.00 0.00 0.00 0.00 0.00 0.00 0.00 0.00 0.00 0.00 0.00 0.00 0.00 0.00 0.00 0.00 0.00 0.00 0.00 0.00 0.00 0.00 0.00 0.00 0.00 0.00 0.00 0.02 0.01 0.00 0.00 0.00 0.00 0.00 0.00 0.00 0.00 0.00 0.00 0.00 0.00 0.00 0.00 0.00
0.00 0.00 0.00 0.00 0.00 0.00 0.00 0.00 0.00 0.00 0.00 0.00 0.00 0.00 0.00 0.00 0.00 0.00 0.00 0.00 0.00 0.00 0.00 0.00 0.00 0.00 0.00 0.00 0.00 0.00 0.00 0.00 0.00 0.00 0.00 0.00 0.00 0.00 0.00 0.02 0.02 0.00 0.00 0.00 0.00 0.00 0.00 0.00 0.00
0.00 0.01 0.00 0.00 0.00 0.00 0.00 0.00 0.00 0.00 0.00 0.00 0.00 0.00 0.00 0.00 0.00 0.00 0.00 0.00 0.00 0.00 0.00 0.00 0.00 0.00 0.00 0.00 0.00 0.00 0.00 0.00 0.00 0.00 0.00 0.00 0.00 0.00 0.02 0.07 0.03 0.03 0.09 0.07 0.02 0.00 0.00 0.01 0.00
0.01 0.01 0.01 0.00 0.00 0.00 0.01 0.01 0.00 0.00 0.00 0.00 0.00 0.00 0.00 0.00 0.00 0.00 0.00 0.00 0.00 0.00 0.00 0.00 0.00 0.00 0.00 0.00 0.00 0.00 0.00 0.00 0.00 0.00 0.00 0.00 0.00 0.00 0.01 0.01 0.01 0.03 0.19 0.14 0.07 0.03 0.05 0.05 0.05
0.00 0.00 0.01 0.00 0.00 0.00 0.00 0.00 0.00 0.00 0.00 0.00 0.00 0.00 0.00 0.00 0.00 0.00 0.00 0.00 0.00 0.00 0.00 0.00 0.00 0.00 0.00 0.00 0.00 0.00 0.00 0.00 0.00 0.00 0.00 0.00 0.00 0.00 0.00 0.00 0.01 0.09 0.08 0.12 0.07 0.11 0.11 0.13 0.13
0.00 0.00 0.00 0.00 0.00 0.00 0.00 0.00 0.00 0.00 0.00 0.00 0.00 0.00 0.00 0.00 0.00 0.00 0.00 0.00 0.00 0.00 0.00 0.00 0.00 0.00 0.00 0.00 0.00 0.00 0.00 0.00 0.00 0.00 0.00 0.00 0.00 0.00 0.00 0.00 0.02 0.06 0.04 0.03 0.06 0.05 0.17 0.06 0.20
0.00 0.00 0.00 0.00 0.00 0.00 0.00 0.00 0.00 0.00 0.00 0.00 0.00 0.00 0.00 0.00 0.00 0.00 0.00 0.00 0.00 0.00 0.00 0.00 0.00 0.00 0.00 0.00 0.00 0.00 0.00 0.00 0.00 0.00 0.00 0.03 0.00 0.01 0.02 0.00 0.00 0.00 0.00 0.01 0.03 0.05 0.06 0.10 0.12
0.00 0.00 0.01 0.02 0.00 0.00 0.00 0.00 0.00 0.00 0.00 0.00 0.00 0.00 0.00 0.00 0.00 0.00 0.00 0.00 0.00 0.00 0.00 0.00 0.00 0.00 0.00 0.00 0.00 0.00 0.01 0.00 0.01 0.00 0.01 0.03 0.01 0.00 0.01 0.00 0.00 0.02 0.03 0.03 0.08 0.09 0.16 0.18 0.16
0.00 0.00 0.01 0.00 0.00 0.00 0.01 0.00 0.03 0.03 0.01 0.00 0.00 0.00 0.00 0.00 0.00 0.00 0.00 0.00 0.00 0.00 0.00 0.00 0.00 0.00 0.00 0.00 0.00 0.00 0.00 0.00 0.01 0.01 0.00 0.00 0.00 0.01 0.08 0.15 0.14 0.10 0.09 0.06 0.07 0.12 0.13 0.14 0.16
0.00 0.00 0.00 0.00 0.00 0.00 0.01 0.04 0.02 0.07 0.04 0.01 0.00 0.00 0.00 0.00 0.00 0.00 0.00 0.00 0.00 0.00 0.00 0.00 0.00 0.00 0.00 0.00 0.00 0.00 0.00 0.00 0.01 0.00 0.05 0.04 0.02 0.07 0.39 0.47 0.29 0.12 0.12 0.14 0.17 0.15 0.10 0.07 0.19
0.00 0.00 0.00 0.00 0.00 0.00 0.01 0.02 0.00 0.04 0.06 0.01 0.00 0.00 0.00 0.00 0.00 0.00 0.00 0.00 0.00 0.00 0.00 0.00 0.00 0.00 0.00 0.00 0.00 0.00 0.00 0.00 0.00 0.00 0.01 0.00 0.01 0.13 0.36 0.25 0.07 0.10 0.07 0.10 0.11 0.13 0.13 0.16 0.19
0.00 0.00 0.00 0.00 0.00 0.01 0.01 0.00 0.00 0.00 0.02 0.01 0.00 0.00 0.00 0.00 0.00 0.00 0.00 0.00 0.00 0.00 0.00 0.00 0.00 0.00 0.00 0.00 0.00 0.00 0.00 0.00 0.00 0.00 0.00 0.00 0.01 0.11 0.11 0.02 0.00 0.02 0.07 0.08 0.14 0.16 0.17 0.21 0.18
0.00 0.00 0.00 0.00 0.01 0.02 0.00 0.00 0.00 0.00 0.00 0.00 0.00 0.00 0.00 0.00 0.00 0.00 0.00 0.00 0.00 0.00 0.00 0.00 0.00 0.00 0.00 0.00 0.00 0.00 0.00 0.00 0.00 0.00 0.00 0.00 0.00 0.01 0.03 0.01 0.01 0.01 0.02 0.02 0.03 0.07 0.10 0.06 0.07
0.00 0.00 0.00 0.00 0.00 0.00 0.00 0.00 0.00 0.00 0.00 0.00 0.00 0.00 0.00 0.00 0.00 0.00 0.00 0.00 0.00 0.00 0.00 0.00 0.00 0.00 0.00 0.00 0.00 0.00 0.00 0.00 0.00 0.00 0.00 0.00 0.00 0.01 0.05 0.06 0.06 0.08 0.10 0.11 0.10 0.08 0.06 0.05 0.07
0.00 0.00 0.00 0.00 0.00 0.00 0.01 0.00 0.00 0.00 0.00 0.00 0.00 0.00 0.00 0.00 0.00 0.00 0.00 0.00 0.00 0.00 0.00 0.00 0.00 0.00 0.00 0.00 0.00 0.00 0.00 0.00 0.00 0.00 0.00 0.00 0.00 0.02 0.03 0.01 0.02 0.01 0.01 0.01 0.01 0.00 0.01 0.00 0.01
0.00 0.00 0.00 0.00 0.00 0.00 0.00 0.00 0.00 0.00 0.00 0.00 0.00 0.00 0.00 0.00 0.00 0.00 0.00 0.00 0.00 0.00 0.00 0.00 0.00 0.00 0.00 0.00 0.00 0.00 0.00 0.00 0.00 0.00 0.00 0.01 0.03 0.01 0.00 0.00 0.00 0.00 0.00 0.00 0.00 0.00 0.00 0.00 0.00
0.00 0.00 0.00 0.00 0.00 0.00 0.00 0.00 0.00 0.00 0.00 0.00 0.00 0.00 0.00 0.00 0.00 0.00 0.00 0.00 0.00 0.00 0.00 0.00 0.00 0.00 0.00 0.00 0.00 0.00 0.00 0.00 0.00 0.00 0.00 0.00 0.00 0.00 0.00 0.00 0.00 0.00 0.00 0.00 0.00 0.00 0.00 0.00 0.00
0.00 0.00 0.00 0.00 0.00 0.00 0.00 0.00 0.00 0.00 0.00 0.00 0.00 0.00 0.00 0.00 0.00 0.00 0.00 0.00 0.00 0.00 0.00 0.00 0.00 0.00 0.00 0.00 0.00 0.00 0.00 0.00 0.00 0.00 0.00 0.00 0.00 0.00 0.00 0.00 0.00 0.00 0.00 0.00 0.00 0.00 0.00 0.00 0.00
MSLP
1005.09 1005.54 1005.10 1005.29 1005.63 1005.79 1002.95 1001.69 1000.38 1000.85 999.59 1000.26 1001.34 1003.66 1003.52 1004.39 1003.88 1006.46 1007.61 1008.16 1009.45 1010.40 1011.32 1011.89 1012.30 1012.58 1012.97 1013.20 1013.37 1013.53 1013.65 1014.01 1014.20 1014.57 1014.56 1014.58 1014.60 1014.79 1014.94 1015.01 1014.97 1015.09 1015.14 1015.14 1015.21 1015.23 1015.32 1015.57 1015.74
1004.44 1005.03 1004.39 1003.85 1004.93 1004.18 1002.95 1001.69 1000.36 1000.03 999.97 1000.81 1002.27 1005.32 1004.18 1004.66 1005.34 1006.28 1007.62 1008.09 1008.81 1009.99 1010.86 1011.72 1012.41 1012.72 1013.02 1013.30 1013.54 1013.67 1013.87 1014.10 1014.28 1014.51 1014.65 1014.63 1014.74 1014.87 1014.99 1015.09 1015.13 1015.24 1015.21 1015.23 1015.33 1015.26 1015.44 1015.66 1015.84
1004.52 1004.29 1005.11 1003.87 1003.75 1003.34 1003.45 1001.95 1000.09 999.99 999.81 1000.17 1003.33 1003.84 1004.21 1005.20 1005.66 1006.22 1006.69 1007.31 1008.37 1009.49 1010.21 1011.85 1012.49 1012.85 1013.19 1013.44 1013.66 1013.81 1014.01 1014.15 1014.30 1014.48 1014.64 1014.63 1014.75 1014.87 1015.02 1015.16 1015.25 1015.34 1015.34 1015.41 1015.43 1015.43 1015.54 1015.78 1015.98
1004.72 1004.31 1004.95 1005.48 1003.32 1002.56 1001.72 1001.08 1000.67 1000.05 1000.05 1000.68 1002.79 1003.83 1004.75 1005.07 1005.13 1005.31 1006.06 1006.91 1007.79 1008.77 1010.41 1011.99 1012.59 1012.97 1013.29 1013.53 1013.83 1013.95 1014.07 1014.18 1014.29 1014.47 1014.57 1014.63 1014.76 1014.88 1014.97 1015.15 1015.38 1015.41 1015.44 1015.58 1015.64 1015.68 1015.82 1015.96 1016.18
1006.99 1006.64 1007.48 1005.99 1003.48 1002.84 1001.24 1001.47 1001.84 1000.87 1000.33 1001.50 1003.05 1004.25 1005.03 1004.93 1005.00 1005.14 1005.79 1006.27 1007.23 1009.05 1010.69 1011.93 1012.71 1013.08 1013.36 1013.57 1013.79 1014.00 1014.13 1014.17 1014.25 1014.46 1014.52 1014.61 1014.78 1014.91 1015.04 1015.20 1015.37 1015.52 1015.48 1015.57 1015.68 1015.83 1015.99 1016.14 1016.20
1004.44 1006.30 1007.93 1004.98 1004.25 1003.04 1002.22 1001.35 1001.83 1001.93 1000.47 1000.96 1002.42 1004.55 1005.44 1004.93 1005.02 1005.28 1005.42 1006.07 1007.75 1009.32 1010.56 1011.95 1012.74 1013.03 1013.27 1013.51 1013.76 1014.01 1014.15 1014.28 1014.41 1014.48 1014.57 1014.69 1014.82 1014.98 1015.11 1015.28 1015.40 1015.47 1015.51 1015.60 1015.75 1015.89 1015.95 1016.05 1016.19
1004.28 1006.42 1008.47 1006.12 1003.69 1002.16 1001.71 1001.44 1001.75 1001.62 1000.65 1001.17 1001.73 1003.48 1005.23 1004.87 1005.21 1005.25 1005.44 1006.74 1007.96 1009.18 1010.50 1011.66 1012.50 1013.08 1013.31 1013.55 1013.83 1014.04 1014.24 1014.38 1014.53 1014.64 1014.71 1014.81 1014.93 1015.03 1015.09 1015.28 1015.40 1015.40 1015.46 1015.61 1015.76 1015.92 1016.04 1016.12 1016.21
1004.28 1007.50 1006.39 1005.48 1003.80 1001.98 1001.30 1000.66 1000.90 1000.65 1000.99 1001.34 1001.90 1003.33 1004.49 1004.56 1005.25 1005.32 1005.70 1006.34 1007.46 1008.73 1010.27 1011.29 1011.96 1012.74 1013.06 1013.48 1013.83 1014.03 1014.19 1014.34 1014.54 1014.70 1014.84 1014.94 1015.06 1015.12 1015.19 1015.39 1015.44 1015.42 1015.48 1015.57 1015.69 1015.86 1016.03 1016.19 1016.22
1002.41 1005.48 1005.45 1003.85 1002.75 1001.03 1000.83 1000.91 1000.69 1000.56 1000.52 1001.52 1001.64 1002.66 1003.96 1004.65 1005.21 1005.44 1005.98 1006.60 1007.42 1008.46 1009.56 1010.29 1011.14 1012.09 1012.53 1012.93 1013.64 1013.93 1014.16 1014.27 1014.42 1014.63 1014.83 1014.96 1014.93 1014.96 1015.19 1015.06 1015.32 1015.38 1015.46 1015.55 1015.57 1015.70 1015.92 1016.03 1015.96
1000.82 1002.56 1001.11 1000.70 1000.89 999.95 999.84 1000.15 1000.37 1001.03 1001.15 1001.65 1002.53 1003.40 1004.16 1004.71 1005.25 1005.46 1006.03 1006.66 1007.56 1008.09 1008.84 1009.49 1010.60 1011.23 1011.81 1012.22 1013.32 1013.62 1013.80 1013.91 1014.13 1014.23 1014.61 1014.83 1014.49 1014.87 1014.63 1014.83 1015.15 1015.25 1015.37 1015.41 1015.42 1015.45 1015.59 1015.61 1015.70
1001.99 1000.12 999.81 999.63 999.89 999.31 999.80 1000.32 1001.27 1002.37 1001.10 1002.34 1002.64 1003.46 1004.23 1004.63 1005.13 1005.39 1006.02 1006.57 1007.67 1007.98 1008.55 1009.40 1009.86 1010.59 1011.19 1011.88 1012.56 1012.74 1012.69 1013.03 1013.17 1013.51 1014.18 1014.17 1014.47 1014.54 1014.72 1014.77 1014.99 1014.94 1015.00 1015.10 1014.94 1015.11 1015.30 1015.23 1015.73
1000.40 1000.79 999.60 999.37 999.22 998.72 999.42 1000.04 1001.93 1001.12 1000.78 1001.58 1002.47 1003.41 1004.11 1004.64 1005.04 1005.43 1005.86 1006.33 1007.35 1007.97 1008.57 1009.48 1009.70 1010.55 1010.77 1011.26 1011.62 1013.09 1012.62 1013.38 1013.76 1012.96 1013.55 1013.93 1014.43 1014.49 1014.60 1014.31 1014.53 1014.44 1014.37 1014.63 1014.65 1014.67 1014.42 1014.91 1015.01
999.29 999.41 999.11 999.02 998.94 998.65 998.87 999.36 1000.14 1000.37 1000.49 1001.34 1002.45 1003.44 1004.00 1004.48 1004.85 1005.31 1005.67 1006.17 1006.97 1007.86 1008.44 1009.16 1009.87 1010.61 1010.96 1011.19 1011.92 1011.51 1011.79 1012.28 1012.73 1012.98 1013.30 1013.52 1013.88 1014.28 1013.91 1013.91 1013.94 1014.06 1013.88 1014.14 1014.33 1014.39 1014.22 1014.25 1014.36
999.04 998.87 998.79 999.02 998.71 998.60 998.95 998.96 999.83 1000.03 1000.36 1001.34 1002.56 1003.50 1004.01 1004.20 1004.64 1005.02 1005.46 1005.90 1006.56 1007.43 1008.13 1008.75 1009.87 1010.73 1011.09 1011.36 1011.72 1011.96 1011.93 1011.94 1012.13 1012.60 1012.83 1013.29 1013.44 1013.62 1013.45 1013.85 1014.04 1014.14 1013.76 1013.84 1013.92 1014.17 1014.32 1014.34 1014.23
999.64 999.39 1000.80 998.78 998.63 998.21 998.71 998.79 999.30 999.92 1000.52 1001.49 1002.33 1003.05 1003.63 1003.98 1004.41 1004.87 1005.40 1005.90 1006.38 1007.10 1007.82 1008.57 1009.43 1010.31 1011.02 1011.39 1011.65 1011.87 1011.99 1011.99 1012.14 1012.21 1012.58 1013.14 1013.20 1013.22 1013.36 1013.76 1013.99 1013.92 1014.01 1014.01 1013.85 1013.83 1013.97 1014.27 1014.18
1002.00 1001.17 1001.06 998.73 998.33 998.09 998.89 999.29 999.67 999.86 1000.44 1001.19 1001.95 1002.65 1003.33 1003.72 1004.17 1004.80 1005.31 1005.71 1006.24 1007.06 1007.71 1008.38 1008.95 1009.50 1010.59 1011.07 1011.44 1011.62 1011.58 1011.64 1011.62 1011.95 1012.01 1012.44 1012.76 1012.97 1013.17 1013.57 1013.65 1013.53 1013.76 1013.83 1013.92 1013.87 1013.98 1014.22 1014.19
1002.71 1001.62 999.50 998.41 998.05 997.57 998.54 999.75 999.59 999.74 999.95 1000.66 1001.44 1002.25 1002.97 1003.52 1003.95 1004.62 1005.10 1005.52 1006.03 1006.79 1007.58 1008.28 1008.82 1009.15 1009.95 1010.70 1011.08 1011.30 1011.16 1011.40 1011.46 1011.61 1011.69 1011.82 1012.24 1012.57 1012.94 1013.31 1013.37 1013.06 1013.35 1013.52 1013.71 1013.76 1013.86 1014.03 1014.08
999.84 998.83 998.20 997.70 997.81 997.84 997.65 998.26 999.02 999.23 999.50 1000.18 1000.93 1001.71 1002.63 1003.15 1003.70 1004.45 1004.89 1005.44 1005.72 1006.37 1007.21 1008.04 1008.58 1009.11 1009.73 1010.38 1010.85 1010.98 1010.87 1010.88 1010.72 1010.86 1011.04 1011.28 1011.88 1012.38 1012.70 1013.12 1013.30 1013.18 1013.13 1013.39 1013.43 1013.49 1013.54 1013.67 1013.87
997.16 996.91 997.56 997.47 997.24 997.64 997.73 997.98 998.53 999.22 999.66 999.76 1000.47 1001.16 1001.94 1002.53 1003.19 1003.96 1004.46 1004.95 1005.36 1006.11 1006.86 1007.55 1008.27 1008.90 1009.48 1010.17 1010.61 1010.83 1010.64 1010.36 1010.39 1010.75 1010.74 1011.11 1011.66 1012.25 1012.83 1013.09 1013.01 1013.00 1013.04 1012.98 1012.91 1013.08 1013.22 1013.17 1013.32
996.33 996.43 997.59 998.28 997.14 997.65 998.33 998.91 999.77 999.29 999.85 999.72 1000.02 1000.47 1001.17 1001.71 1002.39 1003.22 1003.71 1004.09 1004.73 1005.54 1006.26 1007.16 1007.82 1008.50 1009.25 1009.69 1010.02 1010.05 1010.28 1010.30 1010.25 1010.61 1010.61 1010.80 1011.16 1011.44 1011.99 1012.40 1012.47 1012.42 1012.53 1012.51 1012.63 1012.65 1012.90 1012.61 1013.00
995.66 996.11 997.16 996.62 997.20 998.05 999.56 1001.14 1002.05 1002.05 1001.26 999.89 999.66 999.89 1000.08 1000.70 1001.43 1002.28 1002.82 1003.31 1003.90 1004.74 1005.86 1006.69 1007.37 1007.99 1008.72 1009.31 1009.60 1009.98 1010.40 1010.43 1010.39 1010.67 1010.80 1010.96 1011.08 1011.20 1011.46 1011.89 1012.38 1012.49 1012.29 1012.49 1012.46 1012.46 1012.43 1012.38 1012.60
995.03 995.71 995.98 996.33 997.40 999.16 1001.48 1006.38 1005.61 1005.47 1003.16 999.99 999.30 999.03 999.08 999.62 1000.40 1001.37 1002.11 1002.79 1003.29 1003.99 1005.09 1005.97 1006.80 1007.59 1008.32 1008.96 1009.41 1009.60 1010.03 1010.28 1010.13 1010.22 1010.45 1011.09 1011.16 1011.41 1011.49 1011.99 1012.16 1012.30 1012.28 1011.87 1012.01 1012.08 1012.22 1012.26 1012.25
995.15 994.93 995.94 996.75 997.80 999.85 1004.41 1007.61 1007.43 1006.70 1004.56 1000.80 998.50 998.01 998.14 998.63 999.52 1000.43 1001.27 1001.89 1002.46 1003.26 1004.25 1005.27 1006.19 1007.09 1007.81 1008.51 1008.94 1009.30 1009.74 1009.98 1009.78 1010.01 1010.66 1011.07 1011.20 1011.32 1011.56 1011.81 1012.01 1012.10 1011.89 1011.60 1011.67 1011.60 1011.80 1011.71 1011.78
995.08 995.19 995.77 996.39 997.25 1001.86 1004.35 1005.82 1005.54 1004.74 1001.31 999.38 997.50 997.08 997.20 997.77 998.50 999.59 1000.33 1001.11 1001.86 1002.51 1003.45 1004.47 1005.60 1006.55 1007.36 1008.05 1008.71 1009.26 1009.48 1009.66 1009.85 1010.14 1010.67 1010.84 1011.01 1011.43 1011.53 1011.29 1011.54 1011.67 1011.58 1011.59 1011.60 1011.46 1011.48 1011.55 1011.52
994.89 995.02 995.38 995.37 997.91 1002.79 1002.80 1004.53 1004.05 1002.23 999.39 999.28 996.51 996.42 996.49 997.00 997.83 998.78 999.55 1000.28 1001.08 1001.78 1002.78 1003.80 1005.13 1006.30 1007.09 1007.82 1008.51 1009.12 1009.45 1009.71 1010.09 1010.47 1010.59 1010.77 1010.78 1011.07 1011.41 1011.42 1011.47 1011.40 1011.34 1011.38 1011.49 1011.45 1011.45 1011.50 1011.42
994.33 994.49 994.96 995.57 997.59 1000.23 1001.94 1003.66 1002.06 1000.51 998.55 996.82 996.65 996.58 996.51 996.53 997.25 997.99 998.86 999.74 1000.50 1001.35 1002.33 1003.27 1004.96 1006.18 1006.98 1007.81 1008.41 1008.88 1009.35 1009.91 1010.25 1010.36 1010.59 1010.57 1010.56 1010.93 1011.36 1011.54 1011.60 1011.64 1011.69 1011.64 1011.62 1011.69 1011.68 1011.71 1011.71
994.30 993.98 994.38 995.08 995.79 997.71 1002.87 1002.50 1000.84 1000.56 999.16 998.13 997.28 997.24 997.04 996.75 996.97 997.98 998.56 999.39 1000.19 1001.06 1001.97 1003.00 1004.67 1005.80 1006.75 1007.59 1008.33 1008.99 1009.62 1009.82 1009.96 1010.29 1010.61 1010.67 1010.64 1011.12 1011.50 1011.57 1011.74 1011.84 1011.85 1011.62 1011.50 1011.55 1011.43 1011.38 1011.67
994.13 994.12 993.96 994.35 995.62 996.92 999.38 1000.40 1000.45 1000.31 999.91 999.01 997.73 996.81 997.05 997.20 997.41 997.95 998.62 999.26 1000.15 1000.90 1001.70 1002.82 1004.32 1005.54 1006.54 1007.40 1008.27 1008.98 1009.45 1009.73 1010.17 1010.48 1010.50 1010.66 1011.21 1011.33 1011.46 1011.45 1011.59 1011.74 1011.88 1011.77 1011.45 1011.40 1011.63 1011.90 1011.90
993.87 994.15 994.17 994.28 995.33 996.88 997.42 999.88 998.48 997.50 996.47 995.95 995.93 996.13 996.87 997.34 997.85 998.31 998.90 999.43 1000.16 1000.83 1001.59 1002.80 1004.25 1005.47 1006.46 1007.26 1008.07 1008.59 1009.14 1009.61 1010.14 1010.26 1010.65 1010.98 1011.32 1011.45 1011.58 1011.73 1011.99 1012.14 1012.07 1012.10 1012.02 1011.88 1012.03 1012.21 1012.48
993.40 993.25 993.73 993.87 994.53 995.02 995.88 997.19 997.64 996.57 995.82 995.19 995.31 995.91 996.66 997.36 998.06 998.73 999.24 1000.00 1000.79 1001.36 1002.05 1003.08 1004.43 1005.72 1006.60 1007.30 1007.97 1008.52 1009.07 1009.52 1009.69 1010.26 1010.67 1011.02 1011.40 1011.74 1011.79 1011.76 1012.06 1012.33 1012.53 1012.51 1012.46 1012.32 1012.39 1012.54 1012.64
Thickness
5842 5833 5836 5817 5789 5775 5791 5808 5834 5803 5828 5842 5837 5804 5808 5803 5802 5765 5805 5805 5794 5788 5781 5775 5772 5770 5765 5762 5761 5761 5760 5758 5757 5755 5755 5758 5759 5756 5754 5754 5754 5754 5754 5755 5755 5754 5754 5752 5749
5847 5830 5821 5790 5781 5775 5781 5810 5817 5829 5841 5842 5824 5783 5803 5795 5808 5804 5795 5805 5802 5792 5785 5777 5772 5769 5766 5764 5761 5761 5759 5758 5758 5757 5757 5759 5759 5758 5756 5755 5755 5754 5755 5756 5755 5756 5754 5752 5750
5848 5845 5802 5787 5801 5788 5767 5798 5830 5841 5851 5846 5808 5814 5809 5794 5805 5803 5813 5814 5808 5798 5791 5778 5772 5769 5766 5764 5762 5761 5760 5759 5760 5759 5759 5761 5760 5759 5758 5757 5755 5754 5755 5755 5755 5755 5754 5751 5749
5824 5827 5816 5783 5797 5817 5811 5826 5834 5839 5846 5846 5820 5796 5810 5818 5813 5821 5824 5819 5812 5805 5790 5778 5773 5770 5767 5765 5763 5762 5762 5761 5762 5761 5761 5762 5761 5761 5760 5758 5756 5756 5756 5754 5754 5754 5752 5750 5749
5800 5774 5761 5766 5808 5796 5838 5833 5825 5819 5836 5828 5814 5796 5795 5819 5829 5829 5825 5825 5816 5802 5789 5779 5773 5770 5769 5767 5766 5765 5764 5764 5764 5763 5763 5763 5762 5761 5760 5759 5757 5756 5756 5756 5754 5753 5752 5749 5750
5815 5783 5762 5791 5796 5810 5823 5839 5822 5817 5841 5838 5818 5797 5795 5825 5826 5827 5831 5826 5815 5800 5791 5780 5774 5772 5771 5770 5768 5766 5766 5765 5764 5764 5764 5763 5762 5761 5760 5759 5758 5758 5757 5756 5754 5753 5753 5751 5750
5815 5789 5756 5786 5803 5816 5824 5841 5819 5822 5835 5828 5839 5803 5803 5819 5828 5831 5830 5821 5813 5803 5793 5783 5777 5773 5772 5770 5768 5767 5766 5766 5765 5764 5764 5763 5762 5761 5761 5759 5758 5759 5758 5757 5755 5753 5752 5750 5749
5822 5783 5770 5789 5792 5804 5833 5845 5843 5836 5828 5850 5846 5805 5799 5823 5831 5833 5830 5824 5816 5808 5796 5788 5782 5777 5775 5772 5770 5769 5768 5767 5766 5765 5764 5762 5762 5761 5760 5759 5759 5759 5759 5758 5757 5755 5753 5749 5748
5847 5777 5773 5798 5801 5820 5842 5832 5849 5856 5844 5840 5845 5834 5831 5834 5833 5828 5822 5818 5814 5809 5802 5797 5791 5783 5780 5778 5773 5771 5769 5769 5768 5766 5764 5763 5764 5763 5761 5761 5760 5759 5758 5758 5757 5756 5752 5751 5751
5849 5810 5836 5848 5837 5840 5849 5845 5844 5833 5833 5831 5830 5835 5836 5833 5827 5820 5815 5810 5807 5806 5805 5805 5796 5791 5786 5784 5777 5775 5774 5774 5771 5770 5767 5765 5766 5764 5765 5763 5761 5760 5759 5759 5759 5757 5754 5755 5752
5834 5842 5858 5859 5859 5864 5847 5841 5839 5800 5825 5816 5824 5825 5829 5829 5825 5821 5817 5815 5807 5810 5808 5805 5803 5797 5792 5788 5783 5782 5784 5781 5780 5777 5771 5770 5768 5766 5765 5764 5762 5762 5762 5761 5762 5760 5757 5757 5753
5832 5836 5862 5863 5864 5864 5842 5848 5813 5826 5838 5849 5843 5835 5831 5825 5822 5820 5818 5817 5811 5810 5808 5805 5806 5798 5797 5793 5790 5781 5785 5774 5779 5782 5777 5774 5769 5768 5767 5769 5767 5767 5767 5766 5766 5765 5765 5758 5759
5857 5861 5870 5869 5867 5867 5866 5850 5840 5843 5856 5856 5846 5836 5830 5827 5825 5826 5825 5823 5818 5810 5810 5808 5804 5798 5795 5794 5790 5792 5791 5790 5788 5784 5781 5777 5773 5769 5772 5771 5770 5770 5771 5769 5767 5767 5767 5765 5763
5872 5872 5870 5868 5867 5868 5852 5854 5850 5851 5861 5850 5841 5832 5830 5830 5827 5827 5825 5822 5820 5817 5813 5813 5805 5799 5796 5794 5793 5792 5792 5792 5792 5787 5784 5778 5776 5774 5776 5773 5770 5768 5770 5770 5769 5767 5766 5764 5762
5855 5852 5816 5863 5866 5864 5866 5843 5839 5856 5857 5844 5839 5836 5834 5833 5832 5827 5827 5824 5824 5821 5818 5814 5810 5805 5799 5796 5795 5792 5791 5791 5791 5789 5784 5780 5779 5778 5776 5774 5772 5770 5767 5766 5767 5767 5766 5763 5764
5816 5831 5797 5858 5867 5871 5857 5820 5848 5862 5854 5843 5842 5839 5835 5835 5834 5833 5832 5831 5830 5824 5820 5819 5817 5812 5803 5800 5797 5794 5793 5792 5792 5789 5788 5784 5781 5779 5776 5773 5771 5770 5768 5766 5766 5766 5763 5760 5760
5801 5788 5824 5846 5872 5870 5854 5769 5853 5866 5859 5847 5844 5841 5837 5835 5837 5836 5836 5836 5834 5830 5824 5819 5818 5814 5807 5802 5799 5797 5797 5795 5794 5793 5792 5789 5785 5780 5775 5772 5769 5771 5770 5768 5766 5765 5762 5759 5758
5814 5827 5850 5844 5860 5864 5859 5852 5860 5867 5863 5852 5849 5845 5839 5837 5837 5840 5839 5839 5841 5837 5830 5824 5820 5816 5811 5806 5802 5801 5802 5801 5799 5797 5795 5792 5786 5781 5776 5770 5767 5767 5770 5767 5766 5763 5761 5760 5757
5869 5870 5847 5859 5876 5863 5857 5862 5863 5866 5863 5858 5852 5848 5845 5843 5848 5846 5845 5845 5843 5838 5833 5828 5822 5818 5812 5805 5800 5798 5798 5802 5802 5798 5795 5791 5785 5778 5772 5770 5769 5768 5768 5767 5767 5763 5760 5760 5759
5871 5859 5840 5844 5877 5870 5861 5854 5813 5870 5863 5863 5857 5854 5852 5851 5850 5848 5849 5850 5847 5842 5837 5831 5827 5821 5815 5810 5807 5806 5803 5801 5800 5795 5794 5791 5785 5780 5773 5769 5768 5771 5768 5768 5765 5764 5759 5760 5758
5868 5855 5833 5854 5869 5873 5855 5829 5812 5830 5851 5869 5866 5865 5864 5857 5852 5850 5851 5853 5852 5845 5839 5834 5830 5825 5820 5814 5811 5806 5800 5798 5795 5792 5790 5789 5784 5777 5770 5762 5761 5763 5767 5763 5763 5763 5761 5755 5756
5853 5874 5871 5869 5857 5831 5827 5729 5774 5786 5805 5860 5866 5866 5867 5865 5863 5858 5856 5854 5854 5851 5847 5841 5835 5828 5823 5817 5810 5804 5796 5790 5796 5795 5792 5785 5782 5774 5765 5758 5756 5756 5763 5767 5765 5766 5761 5759 5752
5860 5890 5866 5864 5855 5841 5770 5744 5760 5783 5775 5829 5868 5875 5877 5876 5869 5864 5861 5861 5862 5859 5852 5846 5839 5830 5825 5819 5814 5807 5799 5799 5801 5797 5790 5785 5781 5775 5768 5762 5762 5762 5764 5766 5766 5766 5763 5762 5756
5885 5871 5867 5867 5865 5770 5773 5783 5781 5782 5818 5844 5873 5882 5884 5880 5878 5871 5872 5870 5864 5865 5857 5850 5839 5831 5827 5822 5815 5807 5803 5801 5797 5794 5787 5785 5784 5777 5774 5772 5770 5769 5769 5767 5767 5768 5766 5763 5761
5872 5857 5821 5826 5772 5739 5795 5787 5790 5820 5848 5839 5882 5884 5888 5888 5881 5875 5872 5867 5866 5863 5857 5852 5840 5829 5827 5821 5815 5808 5804 5801 5795 5790 5788 5785 5784 5780 5776 5776 5773 5773 5772 5771 5768 5767 5765 5763 5761
5862 5863 5831 5796 5783 5782 5806 5775 5786 5844 5869 5893 5891 5888 5890 5890 5887 5881 5877 5874 5869 5865 5859 5853 5839 5828 5826 5820 5815 5811 5806 5799 5796 5794 5790 5788 5787 5783 5779 5775 5773 5771 5769 5768 5767 5763 5761 5759 5757
5856 5847 5881 5851 5865 5844 5760 5797 5839 5830 5845 5855 5875 5877 5878 5885 5887 5882 5883 5878 5872 5867 5861 5854 5841 5833 5827 5821 5814 5808 5802 5800 5797 5795 5791 5788 5787 5780 5777 5776 5771 5768 5767 5767 5766 5762 5761 5760 5755
5866 5882 5849 5862 5813 5814 5812 5788 5785 5812 5830 5818 5857 5874 5877 5883 5884 5883 5882 5879 5874 5870 5865 5857 5846 5834 5828 5822 5813 5806 5802 5800 5795 5792 5789 5787 5780 5777 5774 5773 5770 5767 5764 5764 5764 5762 5757 5752 5750
5854 5847 5857 5865 5846 5808 5806 5774 5849 5843 5866 5873 5877 5883 5879 5878 5878 5879 5878 5878 5874 5870 5864 5855 5844 5834 5826 5820 5813 5808 5803 5798 5793 5791 5785 5782 5777 5775 5771 5768 5763 5760 5759 5756 5754 5752 5748 5743 5737
5871 5865 5862 5838 5834 5853 5846 5826 5863 5861 5873 5888 5884 5883 5882 5880 5877 5876 5875 5870 5864 5861 5857 5850 5841 5829 5824 5818 5811 5805 5801 5797 5794 5788 5783 5779 5773 5770 5767 5765 5759 5754 5749 5748 5746 5744 5740 5734 5730